| time (UTC) | temp F | wind direction | speed knots | gust knots | rain 1hr in | rain 24hr in | rain mn in | humidity % | barometer mb |
| 20260507101720 | 54 | 340 | 10.4 | 12.2 | 0.00 | 0.00 | 0.00 | 22 | 1016.7 |
| 20260507101220 | 54 | 329 | 9.6 | 10.4 | 0.00 | 0.00 | 0.00 | 20 | 1016.6 |
| 20260507100720 | 54 | 330 | 8.7 | 10.4 | 0.00 | 0.00 | 0.00 | 21 | 1016.6 |
| 20260507100220 | 54 | 330 | 8.7 | 10.4 | 0.00 | 0.00 | 0.00 | 20 | 1016.5 |
| 20260507095719 | 54 | 329 | 8.7 | 11.3 | 0.00 | 0.00 | 0.00 | 21 | 1016.5 |
| 20260507095219 | 53 | 330 | 9.6 | 11.3 | 0.00 | 0.00 | 0.00 | 24 | 1016.4 |
| 20260507094719 | 54 | 324 | 9.6 | 10.4 | 0.00 | 0.00 | 0.00 | 22 | 1016.4 |
| 20260507094219 | 53 | 341 | 7.8 | 9.6 | 0.00 | 0.00 | 0.00 | 24 | 1016.3 |
| 20260507093219 | 53 | 330 | 7.8 | 9.6 | 0.00 | 0.00 | 0.00 | 26 | 1016.5 |
| 20260507092720 | 53 | 319 | 7.8 | 9.6 | 0.00 | 0.00 | 0.00 | 26 | 1016.3 |
| 20260507092219 | 53 | 327 | 7.0 | 8.7 | 0.00 | 0.00 | 0.00 | 25 | 1016.4 |
| 20260507091719 | 53 | 322 | 7.8 | 8.7 | 0.00 | 0.00 | 0.00 | 27 | 1016.3 |
| 20260507091219 | 53 | 329 | 7.0 | 10.4 | 0.00 | 0.00 | 0.00 | 22 | 1016.3 |
| 20260507090719 | 53 | 334 | 7.8 | 10.4 | 0.00 | 0.00 | 0.00 | 23 | 1016.3 |
| 20260507090220 | 53 | 334 | 9.6 | 10.4 | 0.00 | 0.00 | 0.00 | 23 | 1016.2 |
| 20260507085719 | 53 | 329 | 7.8 | 10.4 | 0.00 | 0.00 | 0.00 | 21 | 1016.3 |
| 20260507085219 | 53 | 327 | 7.8 | 10.4 | 0.00 | 0.00 | 0.00 | 20 | 1016.2 |
| 20260507084720 | 53 | 340 | 8.7 | 10.4 | 0.00 | 0.00 | 0.00 | 23 | 1016.2 |
| 20260507084219 | 53 | 348 | 8.7 | 10.4 | 0.00 | 0.00 | 0.00 | 24 | 1016.3 |
| 20260507083718 | 53 | 333 | 8.7 | 10.4 | 0.00 | 0.00 | 0.00 | 25 | 1016.0 |
| 20260507082219 | 53 | 341 | 7.8 | 9.6 | 0.00 | 0.00 | 0.00 | 25 | 1016.1 |
| 20260507081709 | 53 | 322 | 6.1 | 8.7 | 0.00 | 0.00 | 0.00 | 27 | 1016.1 |
| 20260507081206 | 52 | 329 | 7.0 | 8.7 | 0.00 | 0.00 | 0.00 | 31 | 1016.0 |
| 20260507080706 | 52 | 344 | 7.0 | 11.3 | 0.00 | 0.00 | 0.00 | 33 | 1015.9 |
| 20260507075150 | 52 | 354 | 6.1 | 7.8 | 0.00 | 0.00 | 0.00 | 29 | 1016.0 |
| 20260507074648 | 52 | 346 | 2.6 | 5.2 | 0.00 | 0.00 | 0.00 | 27 | 1015.9 |
| 20260507073634 | 52 | 357 | 3.5 | 6.1 | 0.00 | 0.00 | 0.00 | 23 | 1015.9 |
| 20260507073134 | 52 | 58 | 1.7 | 6.1 | 0.00 | 0.00 | 0.00 | 26 | 1015.9 |
| 20260507072629 | 51 | 10 | 3.5 | 7.8 | 0.00 | 0.00 | 0.00 | 28 | 1015.9 |
| 20260507071629 | 51 | 21 | 4.3 | 8.7 | 0.00 | 0.00 | 0.00 | 29 | 1016.0 |
| 20260507071129 | 51 | 31 | 7.0 | 8.7 | 0.00 | 0.00 | 0.00 | 27 | 1015.8 |
| 20260507070628 | 51 | 24 | 2.6 | 6.1 | 0.00 | 0.00 | 0.00 | 26 | 1015.8 |
| 20260507070129 | 51 | 41 | 5.2 | 6.1 | 0.00 | 0.00 | 0.00 | 24 | 1015.8 |
| 20260507065620 | 51 | 10 | 4.3 | 8.7 | 0.00 | 0.00 | 0.00 | 17 | 1015.9 |
| 20260507065119 | 51 | 44 | 5.2 | 8.7 | 0.00 | 0.00 | 0.00 | 17 | 1015.8 |
| 20260507064619 | 50 | 27 | 5.2 | 7.8 | 0.00 | 0.00 | 0.00 | 13 | 1015.8 |
| 20260507063603 | 50 | 10 | 4.3 | 6.1 | 0.00 | 0.00 | 0.00 | 7 | 1015.8 |
| 20260507063102 | 50 | 358 | 4.3 | 6.1 | 0.00 | 0.00 | 0.00 | 7 | 1015.7 |
| 20260507062602 | 50 | 4 | 4.3 | 5.2 | 0.00 | 0.00 | 0.00 | 6 | 1015.7 |
| 20260507062101 | 49 | 7 | 2.6 | 5.2 | 0.00 | 0.00 | 0.00 | 5 | 1015.7 |
| 20260507061557 | 49 | 10 | 3.5 | 5.2 | 0.00 | 0.00 | 0.00 | 4 | 1015.7 |
| 20260507061057 | 49 | 10 | 3.5 | 6.1 | 0.00 | 0.00 | 0.00 | 3 | 1015.6 |
| 20260507055529 | 48 | 10 | 3.5 | 4.3 | 0.00 | 0.00 | 0.00 | 1 | 1015.5 |
| 20260507055019 | 48 | 14 | 3.5 | 4.3 | 0.00 | 0.00 | 0.00 | 1 | 1015.5 |
| 20260507054519 | 47 | 21 | 1.7 | 3.5 | 0.00 | 0.00 | 0.00 | 1 | 1015.4 |
| 20260507054019 | 47 | 10 | 2.6 | 3.5 | 0.00 | 0.00 | 0.00 | 1 | 1015.5 |
| 20260507053513 | 47 | 21 | 2.6 | 4.3 | 0.00 | 0.00 | 0.00 | 1 | 1015.5 |
| 20260507053012 | 47 | 30 | 2.6 | 4.3 | 0.00 | 0.00 | 0.00 | 1 | 1015.4 |
| 20260507052503 | 47 | 28 | 3.5 | 4.3 | 0.00 | 0.00 | 0.00 | 1 | 1015.4 |
| 20260507052003 | 47 | 47 | 2.6 | 5.2 | 0.00 | 0.00 | 0.00 | 1 | 1015.4 |
| 20260507051452 | 47 | 45 | 4.3 | 5.2 | 0.00 | 0.00 | 0.00 | 1 | 1015.2 |
| 20260507050953 | 47 | 28 | 2.6 | 3.5 | 0.00 | 0.00 | 0.00 | 1 | 1015.3 |
| 20260507050444 | 47 | 18 | 3.5 | 4.3 | 0.00 | 0.00 | 0.00 | 1 | 1015.2 |
| 20260507044932 | 47 | 31 | 2.6 | 5.2 | 0.00 | 0.00 | 0.00 | 1 | 1015.1 |
| 20260507044430 | 47 | 17 | 3.5 | 5.2 | 0.00 | 0.00 | 0.00 | 1 | 1014.9 |
| 20260507043930 | 47 | 24 | 4.3 | 4.3 | 0.00 | 0.00 | 0.00 | 1 | 1015.0 |
| 20260507043430 | 47 | 27 | 3.5 | 4.3 | 0.00 | 0.00 | 0.00 | 1 | 1014.9 |
| 20260507042919 | 47 | 42 | 3.5 | 4.3 | 0.00 | 0.00 | 0.00 | 1 | 1014.8 |
| 20260507042418 | 47 | 30 | 2.6 | 4.3 | 0.00 | 0.00 | 0.00 | 1 | 1014.8 |
| 20260507041901 | 47 | 34 | 3.5 | 4.3 | 0.00 | 0.00 | 0.00 | 1 | 1014.8 |
| 20260507041335 | 47 | 17 | 3.5 | 6.1 | 0.00 | 0.00 | 0.00 | 1 | 1014.7 |
| 20260507040832 | 47 | 14 | 4.3 | 6.1 | 0.00 | 0.00 | 0.00 | 1 | 1014.7 |
| 20260507040330 | 47 | 35 | 3.5 | 6.1 | 0.00 | 0.00 | 0.00 | 1 | 1014.7 |
| 20260507035829 | 47 | 35 | 4.3 | 6.1 | 0.00 | 0.00 | 0.00 | 1 | 1014.7 |
| 20260507035336 | 47 | 38 | 3.5 | 5.2 | 0.00 | 0.00 | 0.00 | 1 | 1014.7 |
| 20260507034835 | 47 | 31 | 4.3 | 5.2 | 0.00 | 0.00 | 0.00 | 1 | 1014.7 |
| 20260507034329 | 47 | 20 | 3.5 | 5.2 | 0.00 | 0.00 | 0.00 | 1 | 1014.6 |
| 20260507033820 | 47 | 44 | 5.2 | 5.2 | 0.00 | 0.00 | 0.00 | 1 | 1014.6 |
| 20260507033319 | 47 | 20 | 3.5 | 6.1 | 0.00 | 0.00 | 0.00 | 1 | 1014.5 |
| 20260507032819 | 47 | 23 | 4.3 | 6.1 | 0.00 | 0.00 | 0.00 | 1 | 1014.5 |
| 20260507032318 | 47 | 18 | 5.2 | 6.1 | 0.00 | 0.00 | 0.00 | 1 | 1014.5 |
| 20260507031819 | 47 | 34 | 5.2 | 6.1 | 0.00 | 0.00 | 0.00 | 1 | 1014.4 |
| 20260507031318 | 47 | 27 | 5.2 | 5.2 | 0.00 | 0.00 | 0.00 | 1 | 1014.5 |
| 20260507030818 | 47 | 26 | 4.3 | 5.2 | 0.00 | 0.00 | 0.00 | 1 | 1014.4 |
| 20260507030319 | 47 | 16 | 4.3 | 5.2 | 0.00 | 0.00 | 0.00 | 1 | 1014.3 |
| 20260507025804 | 47 | 13 | 4.3 | 5.2 | 0.00 | 0.00 | 0.00 | 1 | 1014.3 |
| 20260507025301 | 47 | 10 | 3.5 | 5.2 | 0.00 | 0.00 | 0.00 | 1 | 1014.3 |
| 20260507024802 | 47 | 27 | 4.3 | 5.2 | 0.00 | 0.00 | 0.00 | 1 | 1014.4 |
| 20260507024304 | 47 | 47 | 2.6 | 4.3 | 0.00 | 0.00 | 0.00 | 1 | 1014.3 |
| 20260507023229 | 47 | 42 | 5.2 | 6.1 | 0.00 | 0.00 | 0.00 | 1 | 1014.3 |
| 20260507022729 | 47 | 28 | 5.2 | 7.8 | 0.00 | 0.00 | 0.00 | 1 | 1014.3 |
| 20260507022227 | 47 | 31 | 5.2 | 7.8 | 0.00 | 0.00 | 0.00 | 1 | 1014.2 |
| 20260507021719 | 47 | 59 | 6.1 | 7.8 | 0.00 | 0.00 | 0.00 | 1 | 1014.2 |
| 20260507021218 | 47 | 34 | 5.2 | 7.8 | 0.00 | 0.00 | 0.00 | 1 | 1014.2 |
| 20260507020719 | 47 | 37 | 6.1 | 7.8 | 0.00 | 0.00 | 0.00 | 1 | 1014.2 |
| 20260507020219 | 46 | 41 | 6.1 | 7.8 | 0.00 | 0.00 | 0.00 | 1 | 1014.2 |
| 20260507014702 | 47 | 51 | 5.2 | 7.8 | 0.00 | 0.00 | 0.00 | 1 | 1014.1 |
| 20260507014201 | 46 | 13 | 4.3 | 8.7 | 0.00 | 0.00 | 0.00 | 1 | 1014.0 |
| 20260507013643 | 46 | 27 | 5.2 | 8.7 | 0.00 | 0.00 | 0.00 | 1 | 1013.9 |
| 20260507013140 | 46 | 26 | 4.3 | 7.8 | 0.00 | 0.00 | 0.00 | 1 | 1014.0 |
| 20260507012640 | 46 | 27 | 5.2 | 7.8 | 0.00 | 0.00 | 0.00 | 1 | 1014.0 |
| 20260507012130 | 46 | 27 | 5.2 | 7.8 | 0.00 | 0.00 | 0.00 | 1 | 1014.0 |
| 20260507011129 | 46 | 38 | 5.2 | 7.8 | 0.00 | 0.00 | 0.00 | 1 | 1014.1 |
| 20260507010630 | 46 | 18 | 4.3 | 7.8 | 0.00 | 0.00 | 0.00 | 1 | 1013.9 |
| 20260507010119 | 46 | 31 | 4.3 | 7.8 | 0.00 | 0.00 | 0.00 | 1 | 1014.0 |
| 20260507005619 | 46 | 33 | 4.3 | 8.7 | 0.00 | 0.00 | 0.00 | 1 | 1013.9 |
| 20260507005105 | 46 | 31 | 5.2 | 8.7 | 0.00 | 0.00 | 0.00 | 1 | 1013.9 |
| 20260507004101 | 46 | 49 | 5.2 | 6.1 | 0.00 | 0.00 | 0.00 | 1 | 1013.9 |
| 20260507003558 | 46 | 21 | 4.3 | 8.7 | 0.00 | 0.00 | 0.00 | 1 | 1013.9 |
| 20260507003055 | 46 | 14 | 5.2 | 8.7 | 0.00 | 0.00 | 0.00 | 1 | 1014.0 |
| 20260507002530 | 46 | 14 | 4.3 | 6.1 | 0.00 | 0.00 | 0.00 | 1 | 1014.0 |
| 20260507002034 | 46 | 30 | 6.1 | 6.1 | 0.00 | 0.00 | 0.00 | 1 | 1014.0 |
| 20260507001530 | 47 | 42 | 3.5 | 5.2 | 0.00 | 0.00 | 0.00 | 1 | 1013.9 |
| 20260507001035 | 47 | 42 | 4.3 | 7.8 | 0.00 | 0.00 | 0.00 | 1 | 1013.8 |
| 20260507000024 | 47 | 33 | 5.2 | 7.8 | 0.00 | 0.00 | 0.00 | 1 | 1013.8 |
| 20260506235518 | 47 | 34 | 6.1 | 7.8 | 0.00 | 0.00 | 0.00 | 1 | 1013.8 |
| 20260506234518 | 47 | 23 | 5.2 | 8.7 | 0.00 | 0.00 | 0.00 | 1 | 1013.9 |
| 20260506234033 | 47 | 35 | 4.3 | 8.7 | 0.00 | 0.00 | 0.00 | 1 | 1013.9 |
| 20260506233519 | 47 | 21 | 5.2 | 6.1 | 0.00 | 0.00 | 0.00 | 1 | 1013.8 |
| 20260506233026 | 47 | 13 | 3.5 | 6.1 | 0.00 | 0.00 | 0.00 | 1 | 1013.9 |
| 20260506232518 | 48 | 17 | 3.5 | 6.1 | 0.00 | 0.00 | 0.00 | 1 | 1013.9 |
| 20260506232027 | 48 | 34 | 3.5 | 6.1 | 0.00 | 0.00 | 0.00 | 1 | 1013.8 |
| 20260506231519 | 48 | 38 | 4.3 | 6.1 | 0.00 | 0.00 | 0.00 | 1 | 1013.8 |
| 20260506231025 | 48 | 20 | 3.5 | 6.1 | 0.00 | 0.00 | 0.00 | 2 | 1013.8 |
| 20260506230518 | 48 | 28 | 4.3 | 6.1 | 0.00 | 0.00 | 0.00 | 3 | 1013.9 |
| 20260506230022 | 48 | 30 | 4.3 | 6.1 | 0.00 | 0.00 | 0.00 | 3 | 1013.8 |
| 20260506225518 | 48 | 31 | 4.3 | 5.2 | 0.00 | 0.00 | 0.00 | 5 | 1013.8 |
| 20260506225024 | 49 | 21 | 3.5 | 6.1 | 0.00 | 0.00 | 0.00 | 5 | 1013.8 |
| 20260506224519 | 49 | 24 | 5.2 | 6.1 | 0.00 | 0.00 | 0.00 | 6 | 1013.7 |
| 20260506224039 | 49 | 58 | 3.5 | 5.2 | 0.00 | 0.00 | 0.00 | 7 | 1013.7 |
| 20260506223518 | 49 | 14 | 3.5 | 5.2 | 0.00 | 0.00 | 0.00 | 9 | 1013.7 |
| 20260506222025 | 49 | 30 | 4.3 | 6.1 | 0.00 | 0.00 | 0.00 | 10 | 1013.5 |
| 20260506221518 | 49 | 20 | 3.5 | 7.8 | 0.00 | 0.00 | 0.00 | 11 | 1013.5 |
| 20260506221030 | 50 | 28 | 5.2 | 7.8 | 0.00 | 0.00 | 0.00 | 12 | 1013.5 |
| 20260506220518 | 50 | 27 | 5.2 | 7.8 | 0.00 | 0.00 | 0.00 | 13 | 1013.5 |
| 20260506215518 | 50 | 27 | 4.3 | 7.8 | 0.00 | 0.00 | 0.00 | 16 | 1013.4 |
| 20260506214518 | 50 | 10 | 6.1 | 8.7 | 0.00 | 0.00 | 0.00 | 18 | 1013.3 |
| 20260506214028 | 50 | 14 | 4.3 | 6.1 | 0.00 | 0.00 | 0.00 | 20 | 1013.3 |
| 20260506213518 | 50 | 24 | 5.2 | 8.7 | 0.00 | 0.00 | 0.00 | 22 | 1013.2 |
| 20260506213027 | 50 | 10 | 3.5 | 8.7 | 0.00 | 0.00 | 0.00 | 25 | 1013.2 |
| 20260506212519 | 50 | 26 | 4.3 | 7.8 | 0.00 | 0.00 | 0.00 | 25 | 1013.2 |
| 20260506212029 | 51 | 10 | 5.2 | 8.7 | 0.00 | 0.00 | 0.00 | 27 | 1013.2 |
| 20260506211518 | 51 | 26 | 5.2 | 8.7 | 0.00 | 0.00 | 0.00 | 29 | 1013.2 |
| 20260506211026 | 51 | 23 | 5.2 | 8.7 | 0.00 | 0.00 | 0.00 | 34 | 1013.0 |
| 20260506210518 | 51 | 16 | 6.1 | 8.7 | 0.00 | 0.00 | 0.00 | 35 | 1013.0 |
| 20260506210026 | 51 | 17 | 6.1 | 8.7 | 0.00 | 0.00 | 0.00 | 39 | 1013.0 |
| 20260506205518 | 51 | 13 | 6.1 | 8.7 | 0.00 | 0.00 | 0.00 | 42 | 1013.0 |
| 20260506205028 | 51 | 23 | 4.3 | 8.7 | 0.00 | 0.00 | 0.00 | 44 | 1012.9 |
| 20260506204518 | 51 | 13 | 5.2 | 9.6 | 0.00 | 0.00 | 0.00 | 45 | 1013.0 |
| 20260506204028 | 51 | 38 | 7.0 | 9.6 | 0.00 | 0.00 | 0.00 | 49 | 1013.0 |
| 20260506203518 | 51 | 10 | 6.1 | 10.4 | 0.00 | 0.00 | 0.00 | 49 | 1012.9 |
| 20260506203028 | 51 | 17 | 5.2 | 10.4 | 0.00 | 0.00 | 0.00 | 51 | 1012.8 |
| 20260506202519 | 52 | 52 | 6.1 | 10.4 | 0.00 | 0.00 | 0.00 | 52 | 1012.8 |
| 20260506202029 | 52 | 13 | 5.2 | 9.6 | 0.00 | 0.00 | 0.00 | 53 | 1012.8 |
| 20260506201519 | 52 | 13 | 7.8 | 9.6 | 0.00 | 0.00 | 0.00 | 55 | 1012.7 |
| 20260506201028 | 52 | 10 | 5.2 | 9.6 | 0.00 | 0.00 | 0.00 | 55 | 1012.7 |
| 20260506200518 | 52 | 16 | 5.2 | 8.7 | 0.00 | 0.00 | 0.00 | 56 | 1012.7 |
| 20260506200027 | 52 | 10 | 6.1 | 8.7 | 0.00 | 0.00 | 0.00 | 57 | 1012.6 |
| 20260506195502 | 53 | 16 | 7.0 | 10.4 | 0.00 | 0.00 | 0.00 | 57 | 1012.4 |
| 20260506195002 | 53 | 13 | 7.0 | 10.4 | 0.00 | 0.00 | 0.00 | 58 | 1012.3 |
| 20260506193430 | 53 | 18 | 7.0 | 13.9 | 0.00 | 0.00 | 0.00 | 58 | 1012.2 |
| 20260506192930 | 53 | 35 | 10.4 | 11.3 | 0.00 | 0.00 | 0.00 | 59 | 1012.1 |
| 20260506192432 | 53 | 10 | 6.1 | 11.3 | 0.00 | 0.00 | 0.00 | 59 | 1012.1 |
| 20260506191929 | 53 | 10 | 7.8 | 11.3 | 0.00 | 0.00 | 0.00 | 59 | 1012.0 |
| 20260506190930 | 54 | 28 | 5.2 | 10.4 | 0.00 | 0.00 | 0.00 | 57 | 1011.9 |
| 20260506190426 | 54 | 10 | 5.2 | 11.3 | 0.00 | 0.00 | 0.00 | 57 | 1011.8 |
| 20260506185918 | 54 | 10 | 7.8 | 11.3 | 0.00 | 0.00 | 0.00 | 57 | 1011.7 |
| 20260506185418 | 55 | 54 | 6.1 | 11.3 | 0.00 | 0.00 | 0.00 | 56 | 1011.6 |
| 20260506184902 | 55 | 28 | 7.0 | 13.9 | 0.00 | 0.00 | 0.00 | 56 | 1011.5 |
| 20260506184402 | 55 | 31 | 10.4 | 13.9 | 0.00 | 0.00 | 0.00 | 56 | 1011.4 |
| 20260506183901 | 55 | 13 | 7.8 | 15.6 | 0.00 | 0.00 | 0.00 | 56 | 1011.4 |
| 20260506183402 | 55 | 28 | 8.7 | 15.6 | 0.00 | 0.00 | 0.00 | 55 | 1011.3 |
| 20260506182831 | 55 | 20 | 9.6 | 12.2 | 0.00 | 0.00 | 0.00 | 55 | 1011.3 |
| 20260506182331 | 56 | 16 | 7.8 | 13.9 | 0.00 | 0.00 | 0.00 | 55 | 1011.3 |
| 20260506181831 | 56 | 17 | 7.0 | 13.9 | 0.00 | 0.00 | 0.00 | 55 | 1011.3 |
| 20260506181330 | 56 | 24 | 11.3 | 13.0 | 0.00 | 0.00 | 0.00 | 55 | 1011.0 |
| 20260506180819 | 56 | 14 | 9.6 | 13.0 | 0.00 | 0.00 | 0.00 | 56 | 1011.0 |
| 20260506175818 | 56 | 21 | 7.8 | 15.6 | 0.00 | 0.00 | 0.00 | 56 | 1011.0 |
| 20260506174807 | 56 | 37 | 9.6 | 15.6 | 0.00 | 0.00 | 0.00 | 56 | 1010.7 |
| 20260506173802 | 56 | 10 | 8.7 | 13.9 | 0.00 | 0.00 | 0.00 | 56 | 1010.6 |
| 20260506173301 | 56 | 48 | 9.6 | 13.9 | 0.00 | 0.00 | 0.00 | 56 | 1010.6 |
| 20260506172232 | 56 | 10 | 7.8 | 16.5 | 0.00 | 0.00 | 0.00 | 56 | 1010.6 |
| 20260506171730 | 57 | 24 | 9.6 | 14.8 | 0.00 | 0.00 | 0.00 | 56 | 1010.4 |
| 20260506171230 | 57 | 31 | 8.7 | 14.8 | 0.00 | 0.00 | 0.00 | 56 | 1010.5 |
| 20260506170229 | 57 | 16 | 11.3 | 14.8 | 0.00 | 0.00 | 0.00 | 56 | 1010.4 |
| 20260506165730 | 57 | 16 | 5.2 | 13.9 | 0.00 | 0.00 | 0.00 | 56 | 1010.5 |
| 20260506163721 | 57 | 59 | 9.6 | 13.9 | 0.00 | 0.00 | 0.00 | 56 | 1010.4 |
| 20260506163219 | 57 | 41 | 7.8 | 13.9 | 0.00 | 0.00 | 0.00 | 56 | 1010.3 |
| 20260506162719 | 56 | 26 | 9.6 | 13.0 | 0.00 | 0.00 | 0.00 | 56 | 1010.2 |
| 20260506162218 | 56 | 28 | 7.8 | 13.0 | 0.00 | 0.00 | 0.00 | 56 | 1010.2 |
| 20260506161723 | 56 | 10 | 7.8 | 13.0 | 0.00 | 0.00 | 0.00 | 57 | 1010.2 |
| 20260506161223 | 56 | 10 | 8.7 | 13.0 | 0.00 | 0.00 | 0.00 | 56 | 1010.2 |
| 20260506160721 | 56 | 21 | 5.2 | 13.0 | 0.00 | 0.00 | 0.00 | 57 | 1010.2 |
| 20260506155718 | 57 | 28 | 8.7 | 14.8 | 0.00 | 0.00 | 0.00 | 56 | 1010.2 |
| 20260506155217 | 57 | 44 | 8.7 | 13.0 | 0.00 | 0.00 | 0.00 | 56 | 1010.1 |
| 20260506154707 | 57 | 66 | 8.7 | 12.2 | 0.00 | 0.00 | 0.00 | 56 | 1010.2 |
| 20260506154203 | 57 | 38 | 5.2 | 13.9 | 0.00 | 0.00 | 0.00 | 56 | 1010.3 |
| 20260506153701 | 56 | 10 | 7.0 | 13.9 | 0.00 | 0.00 | 0.00 | 56 | 1010.3 |
| 20260506153203 | 56 | 10 | 7.0 | 12.2 | 0.00 | 0.00 | 0.00 | 56 | 1010.2 |
| 20260506152702 | 56 | 10 | 7.8 | 12.2 | 0.00 | 0.00 | 0.00 | 56 | 1010.3 |
| 20260506152203 | 56 | 21 | 4.3 | 10.4 | 0.00 | 0.00 | 0.00 | 56 | 1010.2 |
| 20260506151701 | 56 | 40 | 5.2 | 14.8 | 0.00 | 0.00 | 0.00 | 56 | 1010.2 |
| 20260506151138 | 56 | 17 | 9.6 | 14.8 | 0.00 | 0.00 | 0.00 | 56 | 1010.0 |
| 20260506150130 | 56 | 10 | 9.6 | 13.9 | 0.00 | 0.00 | 0.00 | 56 | 1010.2 |
| 20260506145121 | 56 | 24 | 10.4 | 13.0 | 0.00 | 0.00 | 0.00 | 56 | 1010.1 |
| 20260506144620 | 56 | 30 | 7.0 | 13.0 | 0.00 | 0.00 | 0.00 | 56 | 1010.1 |
| 20260506144118 | 56 | 18 | 7.8 | 13.0 | 0.00 | 0.00 | 0.00 | 56 | 1010.2 |
| 20260506143617 | 56 | 10 | 7.0 | 13.0 | 0.00 | 0.00 | 0.00 | 56 | 1010.2 |
| 20260506143118 | 56 | 10 | 7.8 | 12.2 | 0.00 | 0.00 | 0.00 | 56 | 1010.2 |
| 20260506142617 | 57 | 17 | 8.7 | 12.2 | 0.00 | 0.00 | 0.00 | 56 | 1010.1 |
| 20260506142117 | 57 | 21 | 7.8 | 11.3 | 0.00 | 0.00 | 0.00 | 56 | 1010.1 |
| 20260506141617 | 57 | 16 | 7.8 | 11.3 | 0.00 | 0.00 | 0.00 | 56 | 1010.1 |
| 20260506141117 | 57 | 27 | 6.1 | 11.3 | 0.00 | 0.00 | 0.00 | 56 | 1010.1 |
| 20260506140117 | 56 | 17 | 7.8 | 12.2 | 0.00 | 0.00 | 0.00 | 56 | 1010.1 |
| 20260506135617 | 56 | 10 | 7.8 | 12.2 | 0.00 | 0.00 | 0.00 | 56 | 1010.1 |
| 20260506134617 | 56 | 10 | 10.4 | 14.8 | 0.00 | 0.00 | 0.00 | 56 | 1010.0 |
| 20260506133117 | 56 | 11 | 10.4 | 14.8 | 0.00 | 0.00 | 0.00 | 56 | 1010.0 |
| 20260506132617 | 56 | 10 | 10.4 | 13.0 | 0.00 | 0.00 | 0.00 | 56 | 1009.9 |
| 20260506132117 | 56 | 34 | 6.1 | 14.8 | 0.00 | 0.00 | 0.00 | 56 | 1010.1 |
| 20260506131617 | 57 | 13 | 12.2 | 14.8 | 0.00 | 0.00 | 0.00 | 55 | 1009.9 |
| 20260506131117 | 57 | 17 | 6.1 | 14.8 | 0.00 | 0.00 | 0.00 | 55 | 1009.9 |
| 20260506130617 | 57 | 28 | 6.1 | 13.0 | 0.00 | 0.00 | 0.00 | 55 | 1009.8 |
| 20260506130117 | 57 | 26 | 9.6 | 13.0 | 0.00 | 0.00 | 0.00 | 54 | 1009.8 |
| 20260506125617 | 57 | 35 | 4.3 | 13.0 | 0.00 | 0.00 | 0.00 | 54 | 1009.8 |
| 20260506125116 | 57 | 8 | 7.0 | 14.8 | 0.00 | 0.00 | 0.00 | 54 | 1009.7 |
| 20260506124618 | 57 | 14 | 11.3 | 14.8 | 0.00 | 0.00 | 0.00 | 54 | 1009.6 |
| 20260506124117 | 56 | 13 | 9.6 | 14.8 | 0.00 | 0.00 | 0.00 | 54 | 1009.7 |
| 20260506123618 | 57 | 51 | 7.8 | 16.5 | 0.00 | 0.00 | 0.00 | 55 | 1009.7 |
| 20260506123117 | 57 | 5 | 8.7 | 16.5 | 0.00 | 0.00 | 0.00 | 54 | 1009.7 |
| 20260506122617 | 58 | 14 | 8.7 | 20.0 | 0.00 | 0.00 | 0.00 | 53 | 1009.6 |
| 20260506122117 | 58 | 11 | 10.4 | 20.0 | 0.00 | 0.00 | 0.00 | 53 | 1009.6 |
| 20260506121617 | 58 | 37 | 8.7 | 16.5 | 0.00 | 0.00 | 0.00 | 54 | 1009.7 |
| 20260506121117 | 57 | 20 | 12.2 | 16.5 | 0.00 | 0.00 | 0.00 | 55 | 1009.6 |
| 20260506120623 | 57 | 116 | 7.8 | 13.0 | 0.00 | 0.00 | 0.00 | 55 | 1009.6 |
| 20260506115617 | 57 | 35 | 11.3 | 13.9 | 0.00 | 0.00 | 0.00 | 54 | 1009.6 |
| 20260506115117 | 58 | 106 | 9.6 | 14.8 | 0.00 | 0.00 | 0.00 | 54 | 1009.6 |
| 20260506114619 | 57 | 10 | 11.3 | 14.8 | 0.00 | 0.00 | 0.00 | 54 | 1009.5 |
| 20260506113618 | 57 | 21 | 7.8 | 14.8 | 0.00 | 0.00 | 0.00 | 54 | 1009.7 |
| 20260506113118 | 57 | 10 | 10.4 | 13.9 | 0.00 | 0.00 | 0.00 | 54 | 1009.5 |
| 20260506112618 | 57 | 14 | 8.7 | 16.5 | 0.00 | 0.00 | 0.00 | 52 | 1009.7 |
| 20260506112117 | 57 | 47 | 7.0 | 16.5 | 0.00 | 0.00 | 0.00 | 52 | 1009.6 |
| 20260506111617 | 58 | 10 | 8.7 | 15.6 | 0.00 | 0.00 | 0.00 | 53 | 1009.7 |
| 20260506111117 | 57 | 10 | 11.3 | 15.6 | 0.00 | 0.00 | 0.00 | 54 | 1009.5 |
| 20260506110617 | 57 | 10 | 11.3 | 14.8 | 0.00 | 0.00 | 0.00 | 52 | 1009.7 |
| 20260506110117 | 57 | 21 | 9.6 | 14.8 | 0.00 | 0.00 | 0.00 | 52 | 1009.5 |
| 20260506105617 | 57 | 10 | 9.6 | 14.8 | 0.00 | 0.00 | 0.00 | 52 | 1009.7 |
| 20260506105117 | 57 | 35 | 9.6 | 14.8 | 0.00 | 0.00 | 0.00 | 52 | 1009.6 |
| 20260506104617 | 56 | 11 | 10.4 | 14.8 | 0.00 | 0.00 | 0.00 | 55 | 1009.7 |
| 20260506104117 | 56 | 37 | 10.4 | 15.6 | 0.00 | 0.00 | 0.00 | 54 | 1009.6 |
| 20260506103617 | 56 | 10 | 8.7 | 15.6 | 0.00 | 0.00 | 0.00 | 54 | 1009.6 |
| 20260506103117 | 56 | 10 | 11.3 | 13.9 | 0.00 | 0.00 | 0.00 | 51 | 1009.5 |
| 20260506102617 | 56 | 42 | 7.8 | 15.6 | 0.00 | 0.00 | 0.00 | 51 | 1009.7 |
| 20260506102117 | 56 | 28 | 8.7 | 15.6 | 0.00 | 0.00 | 0.00 | 50 | 1009.6 |